Temp
10 10 10 10 10 10 9 9 9 9 9 9 8 8 8 8 8 7 7 7 7 7 7 7 7 7 7 7 6 6 6 6 6 6 6 6 6 6 6 6 6 6 6 6 6 6 6 5 5 5 5 5 5 5 5 5 5 5 5 5 5 5 5 5 5 4 4 4 4
10 9 9 9 9 9 9 9 9 9 8 8 8 8 8 7 7 7 7 7 7 7 7 7 7 7 6 6 6 6 6 6 6 6 6 6 6 6 6 6 6 6 6 6 6 6 6 6 5 5 5 5 5 5 5 5 5 5 5 5 5 5 5 5 5 5 4 4 4
9 9 9 9 9 9 9 9 8 8 8 8 8 7 7 7 7 7 7 7 7 7 7 7 7 6 6 6 6 6 6 6 6 6 6 6 6 6 6 6 6 6 6 6 6 6 6 6 6 5 5 5 5 4 4 4 4 4 4 5 5 5 4 4 4 4 4 4 4
9 9 9 9 9 9 8 8 8 8 8 7 7 7 7 7 7 7 7 7 7 7 7 6 6 6 6 6 6 6 6 6 6 6 6 6 6 6 6 6 6 6 6 6 6 6 6 6 6 5 5 5 4 4 4 4 4 4 4 4 4 4 4 4 4 4 4 4 4
9 9 9 9 9 8 8 8 8 8 7 7 7 7 7 7 7 7 7 7 6 6 6 6 6 6 6 6 6 6 6 6 6 6 6 6 6 6 6 6 6 6 6 6 6 6 6 6 5 5 5 5 5 4 4 4 4 4 3 3 3 3 3 3 3 3 3 3 3
9 9 9 9 8 8 8 8 7 7 7 7 7 7 7 7 7 7 6 6 6 6 6 6 6 6 6 6 6 6 6 6 6 6 6 6 6 6 6 6 6 6 6 6 6 5 5 5 5 5 5 5 5 4 4 4 3 3 3 3 3 3 3 3 3 3 3 3 3
9 9 9 8 8 8 8 7 7 7 7 7 7 7 7 7 7 7 6 6 6 6 6 6 6 6 6 6 6 6 6 6 6 5 5 5 5 5 5 5 5 5 5 5 5 5 5 5 5 5 5 5 4 4 4 4 3 3 3 2 2 2 2 2 2 2 2 2 2
9 9 8 8 8 8 7 7 7 7 7 7 7 7 7 7 7 6 6 6 6 6 6 6 6 6 6 6 5 5 5 5 5 5 5 5 5 5 5 5 5 5 5 5 5 5 5 5 5 4 4 4 4 4 4 4 3 3 2 2 2 2 2 2 2 2 2 2 2
9 8 8 8 7 7 7 7 7 7 7 7 7 7 7 7 6 6 6 6 6 6 6 6 6 6 5 5 5 5 5 5 5 5 5 5 5 5 5 5 5 5 5 5 5 5 4 4 4 4 4 4 4 4 4 4 3 3 2 2 2 2 2 1 1 1 1 1 1
8 8 8 7 7 7 7 7 7 7 7 7 7 7 7 6 6 6 6 6 6 6 6 6 6 5 5 5 5 5 5 5 5 5 5 5 5 5 5 5 5 5 4 4 4 4 4 4 4 4 4 4 4 4 4 4 4 3 3 3 2 2 2 1 1 1 1 1 1
8 7 7 7 7 7 7 7 7 7 7 7 6 6 6 6 6 6 6 6 6 6 6 6 5 5 5 5 5 5 5 5 5 5 5 5 5 5 4 4 4 4 4 4 4 4 4 4 4 4 4 4 4 4 4 4 4 3 3 3 3 2 2 2 1 1 1 1 1
7 7 7 7 7 7 7 7 6 6 6 6 6 6 6 6 6 6 6 6 6 6 6 5 5 5 5 5 5 5 5 5 5 5 4 4 4 4 4 4 4 4 4 4 4 4 3 3 3 3 3 3 3 3 3 3 3 3 3 3 3 3 2 2 2 2 1 1 1
7 7 7 7 7 6 6 6 6 6 6 6 6 6 6 6 6 6 6 6 6 6 5 5 5 5 5 5 5 5 5 5 4 4 4 4 4 4 4 4 4 4 4 4 4 3 3 3 3 3 3 3 3 3 3 3 3 3 3 3 3 3 3 2 2 2 1 1 0
7 7 7 7 6 6 6 6 6 6 6 6 6 6 6 6 6 6 6 6 5 5 5 5 5 5 5 5 5 5 4 4 4 4 4 4 4 4 4 4 3 3 3 3 3 3 3 3 2 2 2 2 2 2 2 2 2 2 3 3 2 2 2 2 2 2 1 1 0
7 7 6 6 6 6 6 6 6 6 6 6 6 6 6 6 6 6 6 5 5 5 5 5 5 5 5 5 4 4 4 4 4 4 4 4 3 3 3 3 3 3 3 3 3 2 2 2 2 2 2 2 2 2 2 2 2 2 2 2 2 2 2 1 1 1 1 0 0
7 6 6 6 6 6 6 6 6 6 6 6 6 6 6 6 6 5 5 5 5 5 5 5 5 5 4 4 4 4 4 4 4 3 3 3 3 3 3 3 3 2 2 2 2 2 2 2 2 1 1 1 1 1 1 1 1 1 1 1 1 1 1 1 1 0 0 -0 -0
6 6 6 6 6 6 6 6 6 6 6 6 6 6 6 5 5 5 5 5 5 5 5 5 4 4 4 4 4 4 4 3 3 3 3 3 3 2 2 2 2 2 2 1 1 1 1 1 1 1 1 1 1 1 1 1 1 0 0 0 0 0 -0 -0 -0 -0 -1 -1 -1
6 6 6 6 6 6 6 6 6 6 6 6 6 5 5 5 5 5 5 5 5 5 4 4 4 4 4 4 4 4 3 3 3 3 3 2 2 2 2 2 1 1 1 1 1 1 1 1 1 0 0 0 0 0 0 -0 -0 -0 -0 -0 -1 -1 -1 -1 -1 -1 -1 -1 -1
6 6 6 6 6 6 6 6 6 6 6 5 5 5 5 5 5 5 5 5 4 4 4 4 4 4 4 4 3 3 3 3 2 2 2 2 2 1 1 1 1 1 1 0 0 0 0 0 0 -0 -0 -0 -0 -1 -1 -1 -1 -1 -1 -1 -1 -1 -1 -1 -1 -2 -2 -2 -2
6 6 6 6 6 6 6 6 6 5 5 5 5 5 5 5 5 5 4 4 4 4 4 4 4 4 4 3 3 3 3 2 2 2 1 1 1 1 1 1 0 0 0 0 -0 -0 -0 -0 -0 -1 -1 -1 -1 -1 -1 -1 -1 -1 -1 -2 -2 -2 -2 -2 -2 -2 -2 -2 -2
6 6 6 6 6 6 6 6 5 5 5 5 5 5 5 5 4 4 4 4 4 4 4 4 4 3 3 3 3 2 2 2 1 1 1 1 1 0 0 0 -0 -0 -0 -0 -1 -1 -1 -1 -1 -1 -1 -1 -1 -2 -2 -2 -2 -2 -2 -2 -2 -2 -2 -2 -2 -2 -2 -2 -2
6 6 6 6 6 6 5 5 5 5 5 5 5 5 4 4 4 4 4 4 4 4 4 3 3 3 3 2 2 2 1 1 1 1 0 0 0 -0 -0 -0 -1 -1 -1 -1 -1 -1 -1 -1 -1 -2 -2 -2 -2 -2 -2 -2 -2 -2 -2 -2 -2 -2 -3 -3 -3 -3 -3 -3 -3
6 6 6 6 5 5 5 5 5 5 5 5 5 4 4 4 4 4 4 4 4 4 3 3 3 2 2 2 1 1 1 1 0 0 0 -0 -0 -1 -1 -1 -1 -1 -1 -1 -1 -2 -2 -2 -2 -2 -2 -2 -2 -2 -2 -2 -2 -2 -3 -3 -3 -3 -3 -3 -3 -3 -3 -3 -3
6 6 5 5 5 5 5 5 5 5 5 4 4 4 4 4 4 4 4 4 3 3 3 2 2 2 1 1 1 0 0 -0 -0 -0 -0 -1 -1 -1 -1 -1 -2 -2 -2 -2 -2 -2 -2 -2 -2 -2 -2 -2 -2 -3 -3 -3 -3 -3 -3 -3 -3 -3 -3 -3 -3 -3 -3 -3 -3
5 5 5 5 5 5 5 5 5 4 4 4 4 4 4 4 4 3 3 3 3 2 2 2 1 1 1 0 -0 -0 -0 -1 -1 -1 -1 -1 -1 -1 -2 -2 -2 -2 -2 -2 -2 -2 -2 -2 -2 -3 -3 -3 -3 -3 -3 -3 -3 -3 -3 -3 -3 -3 -3 -3 -3 -3 -3 -4 -4
5 5 5 5 5 5 5 4 4 4 4 4 4 4 4 3 3 3 3 2 2 2 1 1 1 0 -0 -0 -1 -1 -1 -1 -1 -1 -2 -2 -2 -2 -2 -2 -2 -2 -2 -2 -2 -2 -2 -3 -3 -3 -3 -3 -3 -3 -3 -3 -3 -3 -3 -3 -3 -3 -3 -3 -3 -4 -4 -4 -4
5 5 5 5 5 4 4 4 4 4 4 4 4 4 3 3 3 2 2 2 1 1 0 0 -0 -1 -1 -1 -1 -1 -1 -1 -2 -2 -2 -2 -2 -2 -2 -2 -2 -3 -3 -3 -3 -3 -3 -3 -3 -3 -3 -3 -3 -3 -3 -3 -3 -3 -3 -3 -3 -3 -4 -4 -4 -4 -4 -4 -4
5 5 5 4 4 4 4 4 4 4 4 4 3 3 3 2 2 2 1 1 0 0 -0 -1 -1 -1 -1 -1 -1 -1 -2 -2 -2 -2 -2 -2 -2 -3 -3 -3 -3 -3 -3 -3 -3 -3 -3 -3 -3 -3 -3 -3 -3 -3 -3 -3 -3 -3 -3 -3 -4 -4 -4 -4 -4 -4 -4 -4 -4
5 5 4 4 4 4 4 4 4 4 3 3 3 2 2 1 1 1 0 -0 -0 -1 -1 -1 -1 -1 -2 -2 -2 -2 -2 -2 -2 -2 -3 -3 -3 -3 -3 -3 -3 -3 -3 -3 -3 -3 -3 -3 -3 -3 -3 -3 -3 -3 -3 -3 -3 -3 -3 -4 -4 -4 -4 -4 -4 -4 -4 -4 -4
4 4 4 4 4 4 4 4 3 3 3 2 2 1 1 0 0 -0 -0 -1 -1 -1 -1 -1 -2 -2 -2 -2 -2 -2 -2 -2 -3 -3 -3 -3 -3 -3 -3 -3 -3 -3 -3 -3 -3 -3 -3 -3 -3 -3 -3 -3 -3 -3 -3 -3 -3 -4 -4 -4 -4 -4 -4 -4 -4 -4 -4 -4 -4
4 4 4 4 4 3 3 3 3 2 2 1 1 0 0 -0 -0 -1 -1 -1 -1 -1 -2 -2 -2 -2 -2 -2 -2 -3 -3 -3 -3 -3 -3 -3 -3 -3 -3 -3 -3 -3 -3 -3 -3 -4 -4 -4 -3 -3 -3 -3 -3 -3 -4 -4 -4 -4 -4 -4 -4 -4 -4 -5 -5 -5 -5 -5 -5
4 4 3 3 3 3 2 2 2 1 1 0 -0 -0 -0 -1 -1 -1 -1 -1 -1 -2 -2 -2 -2 -2 -2 -3 -3 -3 -3 -3 -3 -3 -3 -3 -3 -3 -3 -3 -4 -4 -4 -4 -4 -4 -4 -4 -4 -4 -4 -4 -4 -4 -4 -4 -4 -4 -4 -4 -5 -5 -5 -5 -5 -5 -5 -5 -6
3 3 3 2 2 2 1 1 1 0 -0 -0 -0 -1 -1 -1 -1 -1 -1 -2 -2 -2 -2 -2 -2 -3 -3 -3 -3 -3 -3 -3 -3 -3 -3 -3 -4 -4 -4 -4 -4 -4 -4 -4 -4 -4 -4 -4 -4 -4 -4 -4 -4 -4 -4 -4 -4 -5 -5 -5 -5 -5 -5 -5 -5 -5 -6 -6 -6
3 2 2 1 1 1 0 0 -0 -0 -0 -1 -1 -1 -1 -1 -1 -2 -2 -2 -2 -2 -2 -3 -3 -3 -3 -3 -3 -3 -3 -3 -3 -3 -4 -4 -4 -4 -4 -4 -4 -4 -4 -4 -4 -4 -4 -4 -4 -4 -4 -4 -4 -4 -4 -5 -5 -5 -5 -5 -5 -5 -5 -5 -5 -5 -5 -5 -5
2 1 1 1 0 0 -0 -0 -0 -0 -1 -1 -1 -1 -1 -1 -2 -2 -2 -2 -2 -2 -3 -3 -3 -3 -3 -3 -3 -3 -3 -3 -4 -4 -4 -4 -4 -4 -4 -4 -4 -4 -4 -4 -4 -4 -4 -4 -4 -4 -4 -4 -4 -5 -5 -5 -5 -5 -5 -5 -5 -5 -5 -5 -5 -5 -5 -4 -4
1 1 0 0 0 -0 -0 -0 -0 -1 -1 -1 -1 -1 -1 -2 -2 -2 -2 -2 -3 -3 -3 -3 -3 -3 -3 -3 -3 -3 -4 -4 -4 -4 -4 -4 -4 -4 -4 -4 -4 -4 -4 -4 -5 -5 -5 -5 -5 -5 -5 -5 -5 -5 -5 -5 -5 -5 -5 -5 -5 -6 -5 -5 -5 -4 -4 -4 -4
1 1 0 0 0 -0 -0 -0 -1 -1 -1 -1 -1 -2 -2 -2 -2 -2 -2 -3 -3 -3 -3 -3 -3 -3 -3 -3 -3 -4 -4 -4 -4 -4 -4 -4 -4 -4 -4 -4 -4 -4 -5 -5 -5 -5 -5 -5 -5 -5 -5 -5 -5 -5 -5 -5 -5 -5 -5 -5 -6 -5 -5 -5 -4 -4 -4 -4 -4
1 1 0 0 -0 -0 -0 -1 -1 -1 -1 -1 -2 -2 -2 -2 -2 -2 -3 -3 -3 -3 -3 -3 -3 -3 -3 -3 -4 -4 -4 -4 -4 -4 -4 -4 -4 -4 -5 -5 -5 -5 -5 -5 -5 -5 -5 -5 -5 -5 -5 -5 -5 -5 -5 -5 -5 -5 -5 -5 -5 -5 -5 -5 -4 -4 -4 -4 -4
1 0 0 -0 -0 -0 -1 -1 -1 -1 -1 -2 -2 -2 -2 -2 -2 -3 -3 -3 -3 -3 -3 -3 -3 -4 -4 -4 -4 -4 -4 -4 -4 -4 -4 -4 -5 -5 -5 -5 -5 -5 -5 -5 -5 -5 -5 -5 -5 -5 -5 -5 -5 -5 -5 -5 -5 -5 -5 -5 -5 -5 -5 -5 -4 -4 -4 -4 -5
1 0 0 -0 -0 -1 -1 -1 -1 -2 -2 -2 -2 -2 -2 -3 -3 -3 -3 -3 -3 -3 -3 -4 -4 -4 -4 -4 -4 -4 -4 -4 -4 -4 -4 -5 -5 -5 -5 -5 -5 -5 -5 -5 -5 -5 -5 -5 -5 -5 -5 -5 -5 -5 -5 -5 -5 -5 -5 -5 -5 -5 -5 -4 -4 -4 -5 -5 -5
0 0 -0 -0 -1 -1 -1 -1 -2 -2 -2 -2 -2 -2 -3 -3 -3 -3 -3 -3 -3 -3 -4 -4 -4 -4 -4 -4 -4 -4 -4 -4 -4 -5 -5 -5 -5 -5 -5 -5 -5 -5 -5 -5 -5 -5 -5 -5 -5 -5 -5 -5 -5 -5 -5 -5 -5 -5 -5 -5 -5 -4 -4 -4 -5 -5 -5 -5 -5
Height
1548 1548 1547 1546 1546 1545 1545 1544 1544 1543 1542 1541 1540 1540 1539 1538 1538 1537 1536 1536 1535 1535 1534 1533 1532 1532 1531 1530 1530 1529 1528 1527 1526 1526 1525 1524 1523 1523 1522 1521 1520 1519 1518 1517 1516 1515 1513 1512 1510 1509 1507 1506 1505 1503 1502 1501 1501 1500 1499 1498 1496 1495 1495 1493 1492 1491 1490 1490 1489
1547 1547 1546 1545 1545 1544 1543 1542 1542 1541 1540 1540 1539 1538 1538 1537 1536 1536 1535 1535 1534 1533 1532 1532 1531 1530 1530 1529 1528 1527 1526 1525 1525 1524 1523 1522 1521 1521 1520 1519 1518 1517 1516 1515 1514 1513 1511 1510 1509 1507 1505 1504 1502 1501 1500 1499 1498 1497 1496 1495 1494 1493 1492 1490 1490 1489 1488 1487 1486
1546 1546 1545 1545 1544 1543 1542 1541 1540 1540 1539 1538 1538 1537 1536 1536 1535 1535 1534 1533 1532 1532 1531 1530 1529 1529 1528 1527 1526 1525 1525 1524 1523 1522 1521 1520 1520 1519 1518 1517 1516 1515 1514 1513 1512 1510 1509 1508 1507 1505 1503 1502 1500 1499 1497 1496 1496 1495 1493 1492 1491 1490 1489 1488 1487 1486 1485 1485 1484
1545 1545 1544 1543 1543 1542 1541 1540 1539 1539 1538 1537 1537 1536 1535 1535 1534 1533 1532 1531 1531 1530 1529 1528 1527 1527 1526 1525 1524 1524 1523 1522 1521 1520 1519 1518 1517 1516 1515 1515 1514 1512 1511 1510 1509 1508 1507 1506 1504 1503 1501 1500 1498 1497 1495 1494 1494 1492 1490 1489 1488 1488 1486 1485 1484 1484 1483 1482 1481
1544 1543 1543 1542 1541 1540 1540 1539 1538 1538 1537 1536 1535 1535 1534 1533 1532 1531 1530 1530 1529 1528 1527 1526 1525 1525 1524 1523 1522 1521 1521 1520 1519 1518 1517 1516 1515 1514 1513 1512 1511 1510 1509 1508 1507 1506 1505 1503 1502 1500 1499 1497 1496 1495 1494 1492 1491 1490 1488 1487 1486 1485 1484 1483 1482 1481 1480 1479 1478
1542 1542 1541 1540 1540 1539 1539 1538 1537 1536 1536 1535 1534 1534 1533 1532 1531 1530 1529 1528 1527 1526 1525 1525 1524 1523 1522 1521 1520 1520 1519 1518 1517 1516 1515 1514 1513 1512 1511 1510 1509 1508 1507 1506 1505 1504 1502 1501 1499 1498 1496 1495 1494 1492 1491 1490 1489 1488 1486 1485 1484 1483 1482 1480 1479 1479 1478 1476 1475
1541 1540 1540 1539 1539 1538 1537 1536 1536 1535 1535 1534 1533 1532 1531 1530 1530 1529 1528 1527 1526 1525 1524 1523 1522 1521 1520 1520 1519 1518 1517 1516 1515 1514 1513 1512 1511 1510 1509 1508 1507 1506 1505 1504 1502 1501 1500 1499 1497 1495 1494 1492 1491 1490 1489 1488 1487 1485 1484 1482 1481 1480 1480 1478 1477 1476 1475 1474 1473
1540 1539 1539 1538 1537 1536 1536 1535 1535 1534 1533 1532 1531 1531 1530 1529 1528 1527 1526 1525 1524 1524 1523 1522 1521 1520 1519 1518 1517 1516 1515 1514 1513 1512 1511 1510 1509 1508 1507 1506 1505 1504 1502 1501 1500 1499 1497 1496 1495 1493 1491 1490 1488 1487 1486 1485 1484 1483 1481 1480 1479 1478 1477 1476 1475 1474 1473 1472 1471
1538 1538 1537 1536 1536 1535 1535 1534 1533 1532 1531 1531 1530 1529 1528 1527 1526 1525 1525 1524 1523 1522 1521 1520 1519 1518 1517 1516 1515 1514 1513 1512 1511 1510 1509 1508 1507 1505 1504 1503 1502 1501 1500 1499 1498 1496 1495 1493 1492 1490 1489 1488 1486 1485 1483 1483 1481 1480 1478 1477 1476 1475 1474 1474 1473 1472 1470 1470 1468
1537 1536 1535 1535 1534 1534 1533 1532 1531 1530 1530 1529 1528 1527 1526 1525 1525 1524 1523 1522 1521 1520 1519 1519 1518 1516 1515 1515 1513 1512 1511 1510 1509 1508 1506 1505 1504 1503 1502 1501 1500 1498 1497 1496 1495 1494 1492 1490 1489 1487 1486 1485 1484 1482 1480 1480 1478 1477 1475 1474 1473 1472 1471 1470 1470 1469 1468 1467 1466
1535 1535 1534 1533 1533 1532 1531 1530 1530 1529 1528 1527 1526 1525 1525 1524 1523 1522 1521 1520 1520 1519 1518 1517 1516 1515 1514 1513 1512 1510 1510 1508 1507 1505 1504 1503 1502 1501 1500 1498 1497 1495 1494 1493 1492 1491 1489 1487 1486 1484 1483 1482 1481 1479 1478 1476 1475 1474 1472 1470 1470 1469 1467 1467 1466 1466 1465 1464 1463
1534 1533 1532 1532 1531 1530 1529 1528 1528 1527 1526 1525 1525 1524 1523 1522 1522 1521 1520 1519 1518 1517 1516 1515 1514 1513 1512 1511 1510 1508 1507 1506 1505 1503 1502 1500 1499 1498 1497 1495 1494 1493 1491 1490 1489 1488 1486 1484 1483 1481 1480 1478 1477 1476 1475 1473 1472 1470 1469 1467 1466 1465 1464 1463 1462 1462 1461 1460 1460
1532 1532 1531 1530 1529 1529 1528 1527 1526 1525 1525 1524 1523 1522 1522 1521 1520 1519 1518 1517 1516 1515 1514 1513 1512 1511 1510 1509 1507 1506 1505 1503 1502 1500 1499 1498 1496 1495 1494 1492 1491 1490 1488 1487 1486 1485 1483 1481 1480 1478 1476 1475 1474 1473 1472 1470 1469 1467 1465 1464 1463 1462 1460 1459 1459 1458 1458 1457 1456
1531 1530 1529 1529 1528 1527 1526 1525 1525 1524 1523 1522 1522 1521 1520 1519 1519 1518 1517 1515 1514 1513 1512 1511 1510 1509 1508 1506 1505 1504 1502 1501 1500 1498 1496 1495 1494 1492 1491 1489 1488 1486 1485 1484 1483 1481 1480 1478 1476 1475 1473 1471 1470 1469 1468 1467 1465 1464 1462 1461 1459 1458 1457 1456 1455 1455 1454 1453 1452
1529 1529 1528 1527 1526 1526 1525 1524 1523 1523 1522 1521 1520 1520 1519 1518 1517 1516 1515 1514 1512 1511 1510 1509 1508 1506 1505 1504 1503 1501 1500 1498 1497 1495 1493 1492 1490 1489 1488 1486 1485 1483 1482 1480 1479 1478 1476 1475 1473 1472 1470 1468 1467 1465 1464 1463 1462 1460 1459 1458 1456 1455 1454 1453 1452 1451 1450 1449 1448
1528 1527 1526 1526 1525 1524 1524 1523 1522 1521 1520 1520 1519 1518 1517 1516 1515 1514 1513 1511 1510 1509 1508 1507 1505 1504 1503 1501 1500 1499 1497 1495 1494 1492 1490 1489 1487 1486 1484 1483 1481 1480 1479 1477 1475 1474 1473 1472 1470 1469 1467 1465 1463 1462 1460 1460 1458 1457 1455 1454 1453 1452 1450 1450 1449 1448 1447 1446 1445
1526 1525 1525 1524 1524 1523 1522 1521 1520 1520 1519 1518 1517 1516 1515 1514 1513 1512 1511 1510 1508 1507 1505 1504 1503 1501 1500 1499 1497 1496 1494 1492 1490 1489 1487 1485 1484 1482 1481 1480 1478 1477 1475 1474 1472 1470 1469 1468 1467 1465 1464 1462 1460 1459 1457 1456 1455 1453 1452 1451 1450 1448 1447 1446 1445 1445 1444 1442 1441
1525 1524 1524 1523 1522 1521 1521 1520 1519 1518 1517 1516 1515 1514 1513 1512 1511 1510 1509 1507 1506 1505 1503 1501 1500 1499 1497 1495 1494 1493 1491 1489 1487 1485 1484 1482 1481 1479 1478 1476 1475 1474 1472 1471 1469 1468 1466 1465 1463 1462 1460 1459 1457 1455 1454 1453 1451 1450 1449 1447 1446 1445 1444 1443 1442 1442 1441 1440 1438
1523 1523 1522 1521 1521 1520 1519 1518 1517 1516 1515 1514 1513 1512 1511 1510 1509 1507 1506 1505 1504 1502 1500 1499 1497 1496 1494 1493 1491 1489 1488 1486 1484 1482 1481 1480 1478 1476 1475 1473 1472 1470 1469 1468 1466 1465 1463 1461 1460 1459 1457 1455 1454 1452 1451 1450 1448 1447 1445 1445 1443 1442 1441 1440 1440 1439 1438 1436 1435
1522 1521 1520 1520 1519 1518 1517 1516 1515 1514 1513 1512 1511 1510 1509 1508 1507 1505 1504 1503 1501 1500 1498 1496 1495 1493 1491 1490 1488 1486 1485 1483 1481 1480 1478 1476 1475 1473 1472 1470 1469 1467 1466 1465 1463 1461 1460 1458 1457 1455 1454 1452 1451 1449 1448 1447 1445 1444 1443 1442 1440 1440 1438 1437 1436 1435 1434 1433 1432
1520 1520 1519 1518 1517 1516 1515 1515 1514 1512 1511 1510 1509 1508 1507 1505 1504 1503 1502 1500 1499 1497 1495 1494 1492 1490 1488 1486 1485 1483 1481 1480 1479 1477 1475 1473 1472 1470 1469 1468 1466 1464 1463 1461 1460 1459 1457 1456 1454 1453 1451 1450 1448 1447 1445 1444 1442 1441 1440 1439 1437 1436 1435 1434 1433 1432 1431 1430 1428
1519 1518 1517 1516 1515 1515 1514 1513 1512 1510 1509 1508 1507 1506 1505 1503 1502 1500 1499 1497 1496 1494 1492 1490 1489 1487 1485 1483 1482 1480 1478 1477 1475 1474 1472 1471 1469 1467 1466 1465 1463 1461 1460 1459 1457 1456 1455 1453 1452 1450 1449 1447 1445 1444 1442 1441 1440 1438 1437 1435 1434 1433 1432 1431 1430 1429 1427 1426 1425
1517 1517 1516 1515 1514 1513 1512 1511 1510 1509 1507 1506 1505 1504 1502 1501 1499 1498 1496 1495 1493 1491 1490 1488 1486 1484 1482 1481 1479 1477 1475 1474 1472 1471 1470 1468 1466 1465 1463 1462 1461 1459 1457 1456 1455 1454 1452 1450 1449 1447 1446 1444 1442 1441 1440 1438 1437 1435 1434 1432 1431 1430 1429 1428 1426 1425 1424 1422 1421
1516 1515 1514 1513 1512 1511 1510 1509 1508 1506 1505 1504 1502 1501 1500 1498 1496 1495 1493 1491 1490 1488 1487 1485 1483 1481 1480 1478 1476 1475 1473 1471 1469 1467 1466 1465 1464 1462 1461 1460 1458 1457 1455 1454 1453 1451 1450 1448 1446 1444 1443 1441 1440 1439 1437 1436 1435 1433 1431 1430 1428 1427 1425 1424 1423 1422 1420 1419 1418
1514 1513 1512 1511 1510 1509 1508 1507 1505 1504 1503 1501 1500 1499 1497 1495 1494 1492 1490 1489 1487 1485 1484 1482 1480 1479 1477 1475 1473 1472 1470 1469 1467 1465 1463 1462 1461 1460 1458 1457 1455 1454 1453 1451 1450 1449 1448 1446 1445 1443 1441 1439 1438 1436 1435 1434 1433 1431 1430 1428 1426 1425 1423 1421 1420 1419 1418 1417 1415
1512 1511 1510 1509 1508 1507 1506 1505 1503 1502 1500 1499 1497 1496 1494 1492 1491 1489 1487 1486 1484 1482 1481 1479 1477 1476 1474 1472 1470 1469 1468 1466 1465 1463 1461 1459 1458 1456 1455 1454 1453 1451 1450 1449 1448 1446 1445 1444 1443 1441 1440 1438 1436 1435 1433 1431 1430 1429 1428 1426 1424 1422 1420 1419 1417 1416 1415 1414 1413
1510 1509 1508 1507 1506 1505 1503 1502 1501 1499 1498 1496 1495 1493 1491 1490 1488 1486 1485 1483 1481 1480 1478 1477 1475 1473 1471 1470 1468 1466 1465 1463 1462 1460 1459 1457 1455 1454 1452 1451 1450 1449 1447 1446 1445 1444 1443 1441 1440 1440 1438 1436 1435 1433 1431 1429 1428 1426 1425 1423 1421 1420 1418 1416 1415 1413 1412 1411 1410
1509 1507 1506 1505 1504 1502 1501 1500 1498 1497 1495 1494 1492 1490 1489 1487 1485 1484 1482 1480 1479 1477 1475 1474 1472 1471 1469 1467 1465 1464 1462 1461 1459 1458 1456 1455 1453 1452 1450 1449 1447 1446 1445 1444 1443 1441 1440 1439 1438 1437 1436 1435 1433 1431 1429 1427 1425 1423 1422 1420 1419 1417 1415 1414 1412 1411 1410 1409 1408
1506 1505 1504 1502 1501 1500 1499 1497 1496 1494 1493 1491 1489 1488 1486 1484 1483 1481 1480 1478 1476 1475 1473 1471 1470 1468 1466 1465 1463 1461 1460 1458 1457 1455 1454 1452 1450 1449 1448 1446 1445 1444 1443 1441 1440 1439 1438 1437 1436 1435 1434 1432 1431 1429 1427 1425 1423 1421 1419 1418 1416 1415 1413 1412 1410 1409 1408 1407 1405
1504 1503 1501 1500 1499 1497 1496 1495 1493 1491 1490 1488 1486 1485 1483 1482 1480 1479 1477 1476 1474 1472 1471 1469 1467 1465 1464 1462 1460 1459 1457 1456 1455 1453 1451 1450 1448 1447 1445 1444 1442 1441 1440 1439 1438 1436 1435 1434 1433 1432 1431 1430 1428 1427 1425 1422 1420 1419 1417 1415 1413 1412 1411 1409 1408 1407 1406 1404 1403
1502 1500 1499 1497 1496 1494 1493 1492 1490 1489 1487 1485 1484 1482 1481 1480 1478 1477 1475 1474 1472 1470 1468 1467 1465 1463 1461 1460 1459 1457 1455 1453 1452 1451 1449 1448 1446 1444 1443 1441 1440 1438 1437 1436 1435 1434 1433 1432 1431 1430 1429 1427 1426 1424 1422 1420 1418 1416 1414 1412 1410 1409 1408 1407 1405 1404 1403 1402 1401
1499 1498 1496 1495 1493 1491 1490 1489 1487 1486 1485 1483 1482 1480 1479 1478 1476 1475 1473 1471 1470 1468 1466 1464 1462 1461 1459 1457 1456 1455 1453 1451 1450 1448 1447 1445 1444 1442 1440 1439 1437 1436 1435 1434 1433 1432 1431 1430 1428 1427 1426 1425 1423 1421 1419 1417 1415 1413 1411 1410 1408 1407 1405 1404 1403 1402 1401 1400 1399
1496 1495 1494 1492 1490 1489 1488 1486 1485 1484 1483 1481 1480 1479 1477 1475 1474 1472 1471 1469 1467 1465 1464 1462 1460 1459 1457 1455 1454 1452 1450 1449 1447 1446 1444 1443 1441 1440 1438 1436 1435 1433 1432 1431 1430 1430 1428 1427 1426 1425 1423 1422 1420 1418 1416 1414 1412 1410 1408 1406 1405 1404 1403 1402 1400 1399 1398 1397 1396
1494 1493 1491 1490 1488 1487 1486 1485 1484 1482 1481 1480 1478 1477 1475 1474 1472 1470 1468 1467 1465 1464 1462 1460 1459 1457 1455 1453 1452 1450 1448 1446 1445 1444 1442 1440 1439 1437 1435 1434 1432 1431 1430 1429 1428 1427 1426 1425 1423 1422 1421 1419 1417 1415 1413 1411 1409 1408 1406 1404 1402 1401 1400 1399 1398 1397 1395 1394 1393
1492 1491 1489 1488 1487 1486 1485 1483 1482 1481 1479 1478 1476 1475 1473 1471 1470 1468 1466 1465 1463 1461 1459 1458 1456 1455 1453 1451 1450 1448 1446 1444 1442 1441 1440 1439 1437 1435 1433 1431 1430 1429 1428 1427 1426 1425 1424 1422 1421 1419 1418 1416 1415 1412 1410 1408 1406 1405 1403 1401 1400 1399 1398 1397 1395 1394 1393 1391 1390
1491 1490 1488 1487 1485 1485 1483 1482 1480 1479 1477 1475 1474 1472 1470 1469 1467 1466 1464 1462 1460 1459 1457 1455 1454 1452 1450 1449 1447 1446 1444 1442 1440 1439 1438 1436 1435 1433 1430 1429 1427 1426 1425 1425 1423 1422 1421 1420 1418 1417 1415 1414 1412 1410 1408 1406 1404 1402 1401 1399 1398 1396 1395 1394 1393 1391 1390 1389 1388
1490 1488 1487 1485 1484 1483 1481 1480 1478 1476 1475 1473 1472 1470 1469 1467 1465 1463 1462 1460 1458 1456 1455 1453 1451 1450 1448 1447 1445 1443 1442 1440 1439 1437 1435 1434 1433 1431 1429 1426 1425 1423 1423 1422 1421 1420 1419 1417 1416 1415 1413 1411 1410 1407 1405 1404 1402 1400 1398 1397 1395 1394 1393 1392 1390 1389 1387 1387 1386
1488 1487 1485 1484 1482 1480 1479 1478 1476 1475 1473 1471 1470 1468 1466 1465 1463 1461 1460 1459 1457 1455 1452 1451 1449 1448 1446 1445 1443 1441 1440 1438 1437 1435 1433 1432 1430 1429 1427 1424 1422 1421 1420 1419 1418 1417 1416 1415 1414 1412 1411 1410 1407 1405 1403 1401 1400 1398 1396 1395 1393 1392 1390 1389 1388 1386 1386 1385 1385
1486 1485 1483 1482 1480 1478 1477 1475 1474 1472 1471 1469 1467 1466 1464 1463 1461 1459 1458 1456 1455 1453 1451 1449 1447 1445 1444 1442 1440 1439 1437 1435 1435 1433 1431 1430 1428 1427 1425 1423 1420 1418 1418 1417 1416 1415 1414 1413 1411 1410 1409 1407 1405 1403 1401 1400 1397 1396 1394 1393 1391 1389 1388 1387 1386 1385 1384 1384 1383
1484 1482 1481 1480 1478 1476 1475 1473 1472 1470 1469 1467 1465 1464 1462 1460 1459 1457 1456 1454 1453 1451 1450 1447 1445 1444 1442 1440 1439 1436 1434 1432 1431 1430 1429 1427 1426 1424 1423 1421 1418 1416 1415 1415 1414 1413 1411 1410 1410 1408 1407 1405 1403 1401 1400 1398 1395 1394 1392 1390 1389 1387 1385 1385 1385 1384 1382 1381 1380
1482 1480 1479 1477 1476 1475 1473 1471 1470 1468 1467 1465 1464 1462 1460 1459 1457 1455 1454 1452 1451 1449 1447 1445 1443 1441 1440 1438 1436 1434 1432 1430 1428 1427 1426 1425 1423 1422 1421 1419 1417 1415 1413 1413 1412 1411 1409 1408 1407 1406 1405 1403 1401 1400 1398 1396 1394 1392 1390 1388 1387 1385 1384 1383 1382 1381 1380 1379 1378
Wind_Speed
19 21 22 24 24 25 25 24 23 23 22 21 21 20 20 20 19 20 20 20 21 22 22 23 23 24 24 25 25 26 26 26 27 27 28 28 29 29 30 30 30 31 32 32 33 34 34 35 35 35 36 36 36 36 37 37 37 37 37 37 38 38 38 38 38 38 38 38 39
20 22 23 24 24 24 24 24 23 22 21 20 20 20 20 20 20 20 21 21 22 22 23 24 24 25 25 26 26 27 27 28 29 29 29 30 30 31 31 32 32 32 33 34 34 34 35 35 35 35 35 36 36 36 37 37 37 37 38 38 38 38 39 39 39 39 39 39 39
21 23 23 24 23 23 22 21 21 20 20 20 20 20 20 20 21 21 22 22 23 23 24 24 25 26 26 27 27 28 28 29 29 30 31 31 31 32 32 32 33 33 34 34 34 35 35 35 36 36 36 36 36 36 37 37 37 38 38 39 39 39 39 40 40 40 40 40 40
22 23 23 23 22 21 20 19 19 19 19 19 20 20 21 21 22 22 23 23 24 24 25 25 26 26 27 27 28 28 29 29 30 30 31 31 32 32 32 32 33 33 33 34 34 35 35 35 36 36 36 36 36 36 36 37 37 37 38 39 39 39 39 40 40 40 40 41 41
23 23 23 22 21 20 19 18 18 18 19 20 20 21 21 22 22 23 24 24 24 25 25 26 26 27 27 28 28 28 29 29 30 30 31 31 32 32 32 32 33 33 33 33 34 34 35 35 36 36 36 36 36 37 36 36 36 37 37 38 38 39 39 40 41 41 41 41 42
23 23 22 21 19 19 18 18 18 19 20 20 21 21 22 22 23 23 23 24 24 25 25 26 26 27 27 28 28 29 29 30 30 31 31 32 32 32 32 33 33 33 33 34 34 34 35 35 36 36 37 37 37 37 37 36 36 36 36 37 38 38 39 40 40 41 41 42 42
22 21 20 19 18 18 18 18 19 20 20 21 21 22 22 22 22 22 23 23 24 24 25 26 26 27 28 28 29 30 30 31 31 31 32 33 33 33 34 34 34 34 34 35 35 35 36 36 37 37 38 38 38 38 38 37 36 35 35 36 37 38 38 39 40 40 41 42 42
21 20 19 18 18 18 19 19 20 20 21 21 21 21 21 21 22 22 23 23 24 25 26 26 27 28 28 29 30 30 31 32 32 33 33 34 35 35 36 36 36 36 36 36 37 37 37 37 38 38 39 39 39 39 38 38 37 36 35 36 36 37 37 38 39 40 40 41 42
19 19 18 18 18 19 19 20 21 21 21 21 21 21 21 21 22 22 23 24 25 26 26 27 28 28 29 30 31 31 32 33 34 35 36 36 37 38 38 39 39 39 39 39 39 39 39 39 39 40 40 40 40 40 40 39 38 38 37 36 36 36 37 37 38 39 40 41 42
18 18 18 19 19 20 21 21 21 22 21 21 21 21 21 22 22 23 24 25 26 27 27 28 28 29 30 31 32 33 34 35 36 37 38 39 40 40 41 42 42 42 43 43 42 42 42 42 42 41 41 41 41 41 40 40 40 40 39 39 38 37 37 37 37 37 39 40 41
18 18 19 19 20 21 22 22 22 22 22 22 22 22 22 23 23 24 25 26 26 27 28 28 29 30 31 32 33 34 35 37 38 39 40 41 42 43 43 44 44 45 45 45 45 45 45 44 44 43 43 42 41 41 41 41 41 41 41 41 40 39 39 38 37 37 37 38 39
18 19 20 20 21 22 22 23 23 23 23 23 23 23 23 24 24 25 26 26 27 28 28 29 30 31 32 33 34 36 37 38 39 41 42 43 44 44 45 46 46 47 47 47 47 47 46 46 46 45 44 43 42 41 41 41 41 41 41 41 41 41 41 40 39 38 37 37 37
19 20 21 21 22 22 23 23 23 24 24 24 24 24 25 25 26 26 27 27 28 29 29 30 31 32 33 35 36 37 39 40 41 42 43 44 45 46 47 47 48 48 49 49 48 48 47 47 46 45 44 44 43 41 41 40 40 41 41 41 41 41 41 41 40 39 38 38 37
20 21 21 22 22 23 23 24 24 24 25 25 25 26 26 27 27 28 28 29 29 30 31 32 33 34 35 36 38 39 40 42 43 44 45 46 47 48 48 49 49 49 49 49 48 48 47 46 46 45 44 43 43 42 40 40 39 40 40 41 41 41 41 41 41 40 40 39 39
21 22 22 23 23 24 24 24 25 25 26 26 26 27 27 28 29 29 30 30 31 32 33 34 35 36 37 38 40 41 43 44 45 46 47 48 49 49 49 49 49 49 48 48 47 47 46 45 45 44 43 43 42 42 40 39 39 39 39 40 40 41 41 41 41 40 40 40 41
22 23 23 24 24 25 25 26 26 26 27 27 28 28 29 30 30 31 31 32 33 34 35 36 38 39 40 41 43 44 46 47 48 49 49 50 50 50 49 49 48 48 47 46 46 45 45 44 43 43 43 42 42 41 40 39 39 39 39 40 40 41 41 41 41 41 41 41 41
23 24 24 25 25 26 26 27 27 28 28 29 29 30 31 31 32 33 33 34 35 37 38 39 40 42 43 45 46 47 48 49 50 50 50 50 49 49 48 47 47 46 45 44 44 44 43 43 43 42 42 42 42 41 41 40 39 39 40 40 41 41 41 41 41 41 41 42 42
24 25 25 26 26 27 27 28 29 29 30 30 31 32 32 33 34 34 35 36 37 39 40 42 43 45 46 48 49 50 50 50 50 50 49 49 48 47 47 46 45 44 44 43 42 42 42 42 42 42 41 41 41 41 41 40 40 40 41 41 42 42 42 42 42 42 42 42 43
25 26 26 27 27 28 29 30 30 31 32 32 33 33 34 35 35 36 37 39 40 41 43 45 47 48 49 50 50 50 50 49 49 48 48 47 46 46 45 45 44 43 42 42 42 41 41 41 41 41 41 41 42 42 41 41 41 42 42 42 43 43 43 43 43 43 43 43 43
26 27 27 28 29 30 31 31 32 33 33 34 34 35 36 36 37 38 40 41 43 44 46 48 49 50 51 51 50 50 49 48 47 46 46 46 45 44 44 43 43 42 42 41 41 41 41 41 41 41 41 41 42 42 42 42 42 42 42 43 43 43 43 43 43 43 43 43 43
27 28 29 30 31 32 32 33 34 34 35 35 36 37 37 39 40 41 42 44 45 47 48 50 50 51 51 50 49 48 48 47 46 45 45 45 44 43 43 42 42 42 41 41 41 41 41 41 41 41 41 41 42 42 42 42 42 42 42 42 42 42 42 42 43 43 43 44 44
28 29 30 31 32 33 34 35 35 36 36 37 38 39 40 41 42 44 45 47 48 49 50 50 50 50 49 48 47 47 46 46 45 44 44 44 43 43 42 41 41 41 41 41 41 40 41 41 41 41 41 41 41 42 42 42 42 42 42 42 42 42 43 43 43 44 44 45 45
29 30 32 33 33 34 35 36 37 37 38 39 40 41 42 44 45 46 48 49 49 50 50 49 49 48 47 46 46 45 45 45 45 44 43 43 42 42 41 41 40 40 40 40 40 40 40 40 40 40 40 40 41 41 41 41 41 41 42 42 43 43 43 44 44 45 45 46 46
30 31 32 33 34 35 36 37 38 38 39 40 42 43 44 46 47 48 49 49 49 49 49 48 47 46 46 45 45 44 44 44 44 44 43 42 41 41 40 40 40 40 40 40 40 40 40 40 40 40 40 40 40 40 40 40 41 41 42 42 43 43 44 44 45 45 46 46 46
31 32 33 34 35 36 37 38 39 40 41 42 44 45 46 48 48 49 49 49 48 48 47 46 46 45 45 44 44 44 43 43 43 42 42 42 41 40 40 40 40 40 40 40 39 39 39 39 39 39 38 38 38 39 39 40 40 41 41 42 42 43 43 44 44 45 45 45 45
32 33 33 34 35 37 38 39 40 41 43 44 45 47 48 48 48 48 48 48 47 46 45 45 45 44 44 44 44 44 43 42 42 42 41 41 41 40 40 40 40 40 39 39 39 39 39 38 37 36 36 37 38 39 39 40 40 40 41 41 41 42 42 43 44 44 44 43 43
32 33 34 35 36 38 39 40 42 43 45 46 47 47 48 48 47 47 46 46 45 45 44 44 44 44 44 43 43 43 43 42 42 41 41 41 40 40 40 40 40 39 39 39 39 39 38 37 36 35 35 36 37 38 39 40 40 40 40 40 41 41 41 41 42 42 42 41 41
34 35 36 37 38 40 41 42 44 45 46 47 47 47 47 46 46 45 45 45 44 44 44 44 43 43 43 43 43 43 43 42 41 41 40 40 40 40 40 40 40 39 39 39 39 38 37 36 36 35 35 36 36 37 37 38 39 39 39 39 39 39 39 39 39 40 40 40 40
35 36 38 39 40 42 43 44 45 45 46 46 46 46 45 45 44 44 44 44 44 43 43 43 43 43 43 43 43 43 42 42 41 41 40 40 40 40 40 39 39 39 39 39 38 38 37 36 36 35 35 35 35 35 36 37 38 38 39 39 39 38 38 38 39 39 39 39 39
37 38 39 41 42 43 44 44 45 45 45 45 44 44 44 43 43 43 43 43 43 43 43 43 43 43 43 42 42 42 42 41 41 40 40 40 40 40 40 39 39 39 39 39 39 38 37 36 35 35 35 34 35 35 36 37 38 38 39 39 39 39 39 40 39 39 39 39 40
38 40 41 42 43 43 44 44 44 44 43 43 43 42 42 42 42 43 43 43 43 43 43 43 42 42 42 42 41 41 41 41 41 40 40 40 40 40 40 40 40 40 40 39 39 37 36 35 35 34 34 35 34 35 36 37 37 38 39 40 40 40 40 40 39 39 39 40 40
39 40 41 42 42 43 43 42 42 41 41 41 41 41 41 42 42 42 43 43 43 43 42 42 42 42 42 41 41 41 41 41 41 40 40 40 40 40 40 40 40 40 40 39 38 36 35 34 35 35 35 35 35 35 36 36 37 38 39 39 39 39 38 39 39 39 39 38 38
39 40 40 40 40 40 40 40 39 39 39 40 40 41 41 42 43 43 42 42 42 42 41 41 41 41 41 41 41 41 41 41 41 40 40 40 40 40 40 40 40 40 40 39 37 36 35 35 35 35 35 35 35 35 36 36 37 38 38 39 38 38 38 38 38 38 37 36 35
38 38 37 37 37 37 37 37 37 38 39 39 40 41 41 42 42 42 42 42 41 41 40 40 40 40 40 40 40 41 41 41 41 40 40 40 40 40 40 40 41 40 40 39 37 36 35 35 35 35 35 35 35 35 36 36 37 37 38 38 38 38 38 38 37 35 34 32 31
35 35 34 34 34 35 35 36 37 38 39 40 41 41 41 41 41 41 41 41 41 40 40 40 40 40 40 40 40 40 40 41 40 40 40 40 40 40 40 41 41 41 40 39 37 36 35 35 35 35 35 34 35 35 36 36 36 37 38 38 38 38 38 36 34 32 31 31 31
32 32 32 33 34 35 35 36 37 38 39 40 40 41 41 41 41 41 40 40 40 40 39 39 39 39 39 40 40 40 40 40 40 41 40 40 40 40 41 42 42 41 40 39 38 36 35 35 35 34 34 34 34 35 36 36 36 37 38 37 37 37 35 32 31 31 32 32 32
31 31 32 33 35 35 36 37 37 38 39 39 39 40 40 40 40 40 40 39 39 39 39 39 39 39 39 40 40 40 40 40 40 41 40 40 40 40 41 42 42 41 40 39 38 36 35 35 34 34 33 33 34 34 35 36 37 37 37 37 36 34 32 30 32 33 34 32 30
32 33 33 34 35 36 36 37 37 37 38 38 39 39 39 39 39 39 39 38 37 38 38 39 39 39 40 40 40 41 41 41 40 40 40 40 40 40 40 41 42 41 40 39 38 36 35 34 33 32 32 32 33 33 34 35 36 36 36 35 34 32 32 33 35 35 32 29 27
33 34 34 34 35 35 36 36 36 37 37 38 38 38 38 38 38 38 37 37 36 37 37 38 39 39 40 40 40 41 41 41 41 40 40 40 40 40 40 40 41 41 40 39 37 36 34 33 32 31 31 31 32 33 33 34 35 35 34 34 34 35 36 37 36 32 29 27 29
34 34 34 34 35 35 35 36 36 36 36 37 37 37 37 37 37 37 37 36 36 36 37 38 39 40 40 40 40 41 41 42 41 41 40 40 40 39 39 39 40 40 39 38 36 35 33 31 30 30 30 30 31 31 32 33 34 34 34 35 36 38 38 36 32 29 28 31 34
34 34 34 34 34 34 35 35 35 35 36 36 36 36 36 36 36 36 37 37 37 37 38 38 39 40 40 40 40 40 41 42 42 41 40 40 39 39 38 38 38 38 37 36 34 32 31 30 30 31 31 30 30 30 31 32 33 35 36 37 39 38 36 32 30 30 32 34 36
Wind_Direction
313 315 317 318 319 319 320 320 321 322 323 324 325 324 323 322 321 320 319 319 318 318 318 318 317 317 317 317 317 316 316 315 315 314 313 312 311 311 310 310 309 308 308 308 308 309 309 309 309 308 307 306 305 304 304 304 303 303 302 301 301 300 299 298 296 294 293 291 289
312 314 316 317 318 319 320 321 322 323 325 325 325 325 323 322 321 320 319 318 317 317 316 316 316 316 316 316 316 316 315 315 314 313 312 311 311 310 310 309 309 308 308 308 307 307 308 308 308 307 306 304 303 302 301 302 302 301 300 300 299 298 297 295 295 294 293 292 289
310 312 314 315 316 318 320 322 323 325 325 326 325 325 323 322 321 319 318 317 316 316 316 316 316 317 317 317 317 317 316 316 315 314 314 313 313 312 312 311 310 310 309 309 309 308 308 308 308 307 306 304 303 301 300 300 300 299 298 298 297 296 295 293 293 293 292 290 289
309 311 312 313 315 317 319 321 323 324 325 324 324 323 322 321 320 319 318 317 317 318 318 319 319 319 320 320 320 319 318 318 318 317 317 316 315 315 314 314 313 312 312 311 310 310 309 309 308 307 306 305 303 301 300 300 299 297 296 295 295 294 292 292 292 291 290 289 288
308 310 311 313 315 316 318 320 322 323 323 323 322 322 321 320 320 319 319 319 320 321 322 322 323 323 323 323 322 322 321 321 320 320 319 319 318 317 317 316 315 314 314 313 312 311 310 309 308 307 306 305 304 302 301 300 298 296 294 293 292 291 290 290 290 290 289 288 287
307 310 311 313 315 317 319 320 321 322 322 321 321 321 320 320 320 320 321 322 323 324 325 325 325 326 325 325 324 324 324 323 323 322 321 320 320 319 319 318 317 316 316 315 314 313 312 311 309 308 306 305 304 303 303 301 299 296 294 292 290 290 289 288 288 288 287 286 286
308 310 312 313 315 317 319 320 321 321 321 321 321 320 320 320 321 322 323 325 326 327 327 328 328 327 327 326 326 325 325 324 324 323 322 322 321 320 320 319 319 318 317 317 316 315 314 313 311 309 308 307 306 305 304 303 300 297 294 292 290 289 288 287 287 287 285 285 284
309 311 312 313 315 317 319 320 320 321 321 321 320 320 321 322 323 324 326 327 328 329 329 329 329 328 327 326 326 325 325 324 324 323 323 322 322 321 321 320 320 319 319 318 318 317 316 315 313 312 311 310 308 307 306 305 303 300 296 293 291 289 287 286 286 285 284 283 283
310 312 314 315 317 319 320 321 321 321 321 321 321 322 323 324 326 327 329 329 329 330 330 329 328 328 327 325 325 325 324 324 323 323 322 322 321 321 321 320 320 319 319 318 318 318 317 316 315 314 313 312 310 309 308 307 305 302 299 295 292 290 287 286 284 283 282 282 281
313 315 317 319 320 321 322 323 323 324 324 324 324 324 325 326 327 328 329 329 328 328 328 327 327 326 325 324 324 323 323 322 322 321 321 321 320 320 320 319 319 319 318 318 317 317 317 316 315 314 313 312 311 310 308 307 306 303 301 299 296 294 290 287 285 283 281 280 280
317 319 321 322 323 325 325 326 326 326 326 326 326 326 327 327 327 327 327 326 326 325 325 325 324 323 323 322 322 321 321 320 320 320 319 319 319 319 318 318 317 317 317 316 316 316 316 315 315 314 313 312 311 309 308 307 305 304 302 301 300 298 295 292 289 286 283 281 280
322 324 325 326 327 328 328 328 328 328 327 327 327 326 326 325 325 324 323 323 322 322 322 322 321 321 320 320 319 319 319 318 318 318 318 318 317 317 317 316 316 316 315 315 315 315 314 314 314 313 312 311 310 308 307 306 305 303 302 301 300 299 297 296 295 293 290 287 284
326 327 328 329 330 330 330 329 328 327 326 325 325 324 323 322 322 321 320 319 319 319 319 319 318 318 318 317 317 317 317 317 317 317 316 316 316 316 315 315 315 314 314 314 313 313 313 313 312 312 311 310 309 308 306 305 303 302 301 300 300 299 298 298 297 296 295 292 289
329 330 330 331 331 330 329 327 326 325 324 323 322 321 320 319 318 318 317 317 316 316 316 316 316 316 316 316 316 316 316 316 316 316 316 315 315 315 315 314 314 314 313 313 312 312 312 311 311 310 310 309 308 307 306 304 302 301 300 299 299 298 298 298 298 297 296 294 293
332 332 331 331 330 328 327 325 324 323 321 320 319 319 318 317 316 316 315 315 315 315 315 315 315 315 315 315 315 315 316 316 316 316 316 315 315 315 315 314 314 313 313 312 312 311 311 310 310 309 309 308 307 307 306 304 302 300 299 299 298 298 298 297 297 297 296 295 294
333 332 330 329 328 326 325 323 322 320 319 318 317 316 315 315 314 314 314 314 314 314 314 314 314 314 314 314 315 315 316 316 316 316 316 316 316 315 315 314 314 313 313 312 312 311 310 309 309 309 308 308 307 307 306 304 303 301 300 299 298 298 298 298 297 297 296 295 295
331 330 328 327 325 324 322 321 320 318 317 316 315 315 314 314 313 313 313 313 313 313 313 313 313 314 314 315 315 316 317 317 317 317 317 316 316 316 315 314 314 313 313 312 311 311 310 310 309 309 308 308 307 307 306 305 304 302 301 300 299 299 298 298 298 297 296 295 294
328 327 326 324 323 321 320 319 318 317 315 315 314 314 313 313 313 312 312 312 313 313 313 313 314 315 315 316 317 317 317 318 318 317 317 316 316 315 315 314 314 313 313 312 311 311 310 310 310 309 308 308 307 307 306 306 304 303 302 301 300 299 298 298 297 296 296 295 294
325 324 323 322 320 319 318 317 316 315 314 314 313 313 312 312 312 312 312 312 312 313 314 314 315 316 317 317 318 318 318 318 318 317 317 316 315 315 314 314 314 313 313 312 311 311 311 310 310 309 308 307 307 306 306 305 304 302 301 300 299 298 297 297 296 295 295 294 294
323 322 321 320 319 318 317 316 315 314 313 313 312 312 312 311 311 311 312 312 313 314 315 316 317 317 318 318 319 319 318 318 317 317 316 316 315 315 314 314 314 313 313 312 312 311 311 310 309 309 307 306 305 304 303 302 301 301 300 299 298 297 296 296 295 295 295 294 294
321 320 319 318 317 316 315 314 313 312 312 311 311 311 311 311 311 312 312 313 314 315 316 317 318 319 319 319 319 319 318 318 317 316 316 315 315 315 314 314 314 313 313 312 311 311 310 309 308 307 305 304 302 301 300 300 299 299 298 298 297 296 296 296 295 295 295 295 295
320 319 318 317 316 315 314 313 312 311 311 310 310 310 311 311 312 312 313 314 315 317 318 319 319 320 320 320 320 319 318 318 317 316 316 315 315 315 315 314 313 312 311 310 310 309 309 308 306 305 304 302 301 300 300 299 298 298 298 297 297 296 296 296 296 296 296 296 295
319 318 317 316 315 314 312 312 311 310 310 310 310 310 311 312 313 314 315 316 317 318 319 320 320 320 320 320 319 319 318 318 317 317 316 315 315 314 314 313 311 310 309 308 308 308 307 306 306 305 304 302 301 301 300 299 298 298 297 297 297 296 296 296 296 296 296 296 295
319 318 317 315 314 313 312 311 310 310 310 310 310 311 312 313 315 316 317 318 319 320 320 321 321 320 320 320 319 319 318 317 317 317 316 315 314 313 312 311 310 308 307 308 308 308 307 306 305 304 303 302 301 300 299 298 298 297 297 297 297 296 296 296 295 295 295 294 294
319 318 316 315 314 313 312 311 310 310 310 311 312 313 314 316 317 318 319 320 321 321 321 321 321 321 320 320 319 318 318 317 317 316 316 315 314 313 312 310 309 308 308 308 309 308 308 305 304 302 301 300 298 298 298 297 297 297 297 297 296 296 295 294 293 293 292 292 292
319 317 316 315 314 313 312 311 311 311 312 313 314 315 317 318 319 320 321 322 322 322 322 322 321 320 320 319 318 318 317 317 316 316 315 314 313 313 312 310 309 309 309 309 309 308 307 305 302 299 298 298 297 297 297 297 296 296 296 295 295 294 293 292 292 292 292 292 292
318 316 315 314 313 312 312 312 312 313 314 315 316 318 319 320 321 322 323 323 323 322 322 321 320 319 318 318 317 317 317 317 316 315 315 314 313 312 311 310 309 309 308 308 307 306 304 302 300 299 298 297 297 297 297 296 296 296 295 295 294 293 293 292 292 292 293 293 293
316 315 314 313 313 313 313 313 314 315 316 318 319 320 321 322 323 323 323 323 323 322 321 320 319 318 318 317 317 317 317 317 316 315 314 313 312 311 310 309 308 308 307 307 305 304 302 300 299 299 298 298 297 297 297 297 296 296 295 295 294 294 293 293 293 293 293 293 294
314 314 313 313 313 313 314 315 316 317 319 320 321 322 323 323 323 323 322 322 321 320 320 319 318 318 317 317 317 317 317 316 315 314 313 312 311 310 309 308 307 307 306 306 304 302 301 300 299 299 299 299 298 298 297 297 296 296 296 295 294 294 293 293 293 293 293 293 293
314 313 313 314 314 315 316 317 319 320 321 322 323 323 323 322 322 321 321 320 319 319 318 318 318 317 316 316 316 316 315 315 314 313 312 311 310 309 308 308 307 307 306 306 305 303 302 300 300 300 300 299 299 298 297 297 296 296 295 294 294 293 293 292 292 292 293 293 293
314 314 315 316 316 317 319 320 321 322 322 322 322 321 320 320 319 319 319 318 318 318 318 318 317 316 316 316 315 314 313 313 313 312 311 310 309 309 308 308 307 306 306 305 305 303 302 301 301 301 300 300 300 299 298 297 296 295 294 293 293 292 292 292 293 293 293 293 294
316 317 317 318 319 320 321 321 322 321 321 320 319 318 317 317 317 318 318 318 318 318 317 316 316 315 315 314 314 313 312 312 312 311 310 310 309 308 308 307 306 306 306 305 304 303 302 301 301 301 301 301 300 299 298 297 296 294 294 293 293 293 293 293 294 294 295 295 295
319 319 320 320 321 321 321 320 319 318 317 316 315 315 315 316 316 317 318 318 317 316 316 315 314 313 313 313 312 312 312 311 311 311 310 309 308 307 306 306 305 305 305 305 304 303 302 302 302 302 301 301 301 300 298 297 296 295 294 294 294 295 295 296 296 296 296 296 297
321 321 321 320 319 318 317 316 314 313 312 312 313 313 314 315 316 317 317 317 316 315 314 313 313 312 312 311 311 311 310 310 310 309 309 308 307 306 305 304 304 305 305 305 304 303 302 302 302 302 302 302 301 300 298 297 296 296 296 296 296 297 297 298 298 298 299 299 299
321 320 319 317 315 314 312 311 310 310 310 311 312 313 314 315 315 316 316 316 315 314 313 313 312 311 311 310 310 309 309 309 308 308 307 307 306 305 304 304 304 305 305 305 304 303 303 303 303 303 302 302 301 300 299 298 298 297 297 298 298 298 298 298 300 302 303 303 301
319 317 314 312 311 310 309 309 309 310 310 311 312 313 314 315 315 315 315 315 314 313 313 312 312 311 310 310 309 308 308 307 307 306 306 305 305 305 304 304 304 305 306 305 305 304 303 303 303 303 303 302 301 300 300 299 298 298 298 298 298 298 299 301 304 306 305 303 301
315 313 311 310 310 310 310 310 310 310 310 311 312 313 313 314 314 315 315 315 314 313 312 312 311 310 309 309 308 308 307 306 306 305 305 305 304 304 304 304 304 305 306 306 305 305 304 304 304 304 303 303 302 301 300 299 299 299 299 299 298 299 301 304 305 305 303 302 302
313 313 312 311 311 311 311 311 311 310 311 311 312 313 313 314 314 314 314 314 312 311 311 310 310 309 308 308 307 307 306 305 305 304 304 304 304 304 304 304 304 305 306 306 306 305 305 304 304 304 303 303 302 301 300 299 299 300 300 299 299 300 302 304 303 302 301 302 303
315 314 313 313 312 312 312 311 311 311 311 312 312 313 313 314 314 314 314 313 311 310 309 309 308 308 307 307 306 306 305 305 305 304 304 304 304 304 304 304 304 305 306 306 306 306 305 304 304 304 304 303 302 301 301 301 301 301 301 300 300 301 302 301 300 300 301 304 306
315 315 314 313 313 313 312 312 312 312 312 312 312 313 313 313 313 313 312 312 310 309 308 307 307 307 307 307 306 305 305 305 305 305 305 305 305 304 304 303 303 304 305 306 307 306 305 305 304 304 304 304 303 302 302 302 303 302 302 301 300 300 300 300 301 303 306 308 309
315 315 314 314 314 313 313 313 313 313 313 313 313 313 313 313 312 312 311 311 310 309 308 307 307 307 307 307 306 305 305 305 306 306 306 305 305 305 304 304 304 305 306 307 307 306 305 304 304 303 304 304 304 304 304 304 303 302 301 300 299 299 301 303 307 309 311 311 312